Powrót do katalogu

STARLINK-34144

AktywnyŁącznośćVLEO
NORAD 63958·PAYLOAD·🇺🇸 United States

Wystrzelony May 13, 2025 z Cape Canaveral Space Force Station

Loading…

Następne Przeloty (najbliższe 24 godziny)

TLE

ŚwieżeSource: CelesTrak SupGP

Epoka: Sep 15, 2026, 03:34 UTC

1 63958C 25099G   26258.14909722 -.00012529  00000+0 -45390-3 0  2585
2 63958  43.0013 186.4094 0001117 277.8080 306.6336 15.27578437    15

Śledź STARLINK-34144 w czasie rzeczywistym z AllMySat

Download on the App Store